Location: Bauen
(46.9356°N, 8.5784°E)
Time: 08:49:23
(UTC+00:00)

STARLINK-1124 - Pass Details

Date: 18 February 2020
Orbit: 548 x 551 km, 53.0° (Epoch: 01 April)

Event Time Altitude Azimuth Distance (km) Brightness Sun altitude
Exits shadow 05:37:59 11° 266° (W) 1,756 5.5 -8.9°
Maximum altitude 05:41:51 50° 341° (NNW) 715 4.0 -8.2°
Drops below altitude 10° 05:45:55 10° 58° (ENE) 1,838 7.1 -7.5°
Sets 05:48:13 0° 64° (ENE) 2,735 8.2 -7.2°
